When you browse on this site, cookies collect data to enhance your experience and personalize the content and advertising you see.
Visit our Privacy Policy to learn more. By continuing to use the site, you agree to this use of cookies and data.
  • en France
  • Liste des pays
  • À 7 jours
  • Température de l'eau
  • Carte satellitaire
  • Carte météo
  • Widgets météo
  • user-avatar
    Se connecter

    Météo par heure à Lezhё

    Ce jour, 17 Juin, Lundi

    Heure Température Précipitation Vent Pression Humidité
    00:00 +20°C° 0.3 mm 2 m/s 735 mmHg 75%
    01:00 +21°C° 0 mm 1 m/s 735 mmHg 75%
    02:00 +20°C° 0.2 mm 2 m/s 735 mmHg 77%
    03:00 +19°C° 0.2 mm 2 m/s 735 mmHg 78%
    04:00 +19°C° 0.2 mm 2 m/s 735 mmHg 79%
    05:00 +21°C° 0.1 mm 2 m/s 735 mmHg 76%
    06:00 +23°C° 0.1 mm 2 m/s 736 mmHg 73%
    07:00 +25°C° 0 mm 2 m/s 736 mmHg 71%
    08:00 +26°C° 0 mm 2 m/s 736 mmHg 65%
    09:00 +28°C° 0 mm 2 m/s 736 mmHg 58%
    10:00 +30°C° 0 mm 2 m/s 736 mmHg 52%
    11:00 +30°C° 0.1 mm 2 m/s 736 mmHg 51%
    12:00 +30°C° 0.1 mm 2 m/s 736 mmHg 50%
    13:00 +31°C° 0.1 mm 2 m/s 736 mmHg 49%
    14:00 +30°C° 0 mm 2 m/s 736 mmHg 51%
    15:00 +30°C° 0 mm 2 m/s 736 mmHg 53%
    16:00 +30°C° 0 mm 2 m/s 735 mmHg 55%
    17:00 +28°C° 0.1 mm 1 m/s 736 mmHg 61%
    18:00 +27°C° 0.1 mm 1 m/s 736 mmHg 67%
    19:00 +25°C° 0.1 mm 1 m/s 736 mmHg 73%
    20:00 +24°C° 0.2 mm 1 m/s 736 mmHg 75%
    21:00 +23°C° 0.2 mm 1 m/s 736 mmHg 77%
    22:00 +23°C° 0.2 mm 2 m/s 736 mmHg 80%
    23:00 +22°C° 0.3 mm 1 m/s 736 mmHg 80%

    Demain, 18 Juin, Mardi

    Heure Température Précipitation Vent Pression Humidité
    00:00 +22°C° 0.3 mm 1 m/s 736 mmHg 80%
    01:00 +21°C° 0.3 mm 1 m/s 737 mmHg 81%
    02:00 +21°C° 0 mm 1 m/s 736 mmHg 80%
    03:00 +21°C° 0 mm 1 m/s 736 mmHg 80%
    04:00 +21°C° 0 mm 1 m/s 736 mmHg 80%
    05:00 +22°C° 0 mm 1 m/s 736 mmHg 77%
    06:00 +23°C° 0 mm 1 m/s 736 mmHg 74%
    07:00 +24°C° 0 mm 1 m/s 737 mmHg 70%
    08:00 +26°C° 0.1 mm 1 m/s 737 mmHg 64%
    09:00 +28°C° 0.1 mm 1 m/s 737 mmHg 58%
    10:00 +30°C° 0.1 mm 1 m/s 737 mmHg 52%
    11:00 +30°C° 0.3 mm 1 m/s 737 mmHg 52%
    12:00 +30°C° 0.3 mm 2 m/s 736 mmHg 53%
    13:00 +30°C° 0.3 mm 2 m/s 736 mmHg 54%
    14:00 +29°C° 0.8 mm 2 m/s 736 mmHg 58%
    15:00 +28°C° 0.8 mm 2 m/s 736 mmHg 63%
    16:00 +27°C° 0.8 mm 1 m/s 735 mmHg 68%
    17:00 +26°C° 0 mm 1 m/s 736 mmHg 72%
    18:00 +25°C° 0 mm 1 m/s 736 mmHg 75%
    19:00 +24°C° 0 mm 1 m/s 736 mmHg 78%
    20:00 +23°C° 0.1 mm 1 m/s 736 mmHg 79%
    21:00 +22°C° 0.1 mm 1 m/s 736 mmHg 80%
    22:00 +22°C° 0.1 mm 1 m/s 736 mmHg 82%
    23:00 +21°C° 0 mm 1 m/s 736 mmHg 81%

    Après-demain, 19 Juin, Mercredi

    Heure Température Précipitation Vent Pression Humidité
    00:00 +21°C° 0 mm 1 m/s 736 mmHg 80%
    01:00 +21°C° 0 mm 1 m/s 736 mmHg 79%
    02:00 +21°C° 0.2 mm 1 m/s 736 mmHg 80%
    03:00 +20°C° 0.2 mm 1 m/s 735 mmHg 80%
    04:00 +20°C° 0.2 mm 1 m/s 735 mmHg 80%
    05:00 +22°C° 0.1 mm 1 m/s 735 mmHg 76%
    06:00 +23°C° 0.1 mm 1 m/s 735 mmHg 72%
    07:00 +23°C° 0.1 mm 0 m/s 736 mmHg 68%
    08:00 +26°C° 0.1 mm 1 m/s 736 mmHg 64%
    09:00 +28°C° 0.1 mm 1 m/s 736 mmHg 60%
    10:00 +29°C° 0.1 mm 2 m/s 736 mmHg 56%
    11:00 +29°C° 1 mm 2 m/s 735 mmHg 60%
    12:00 +28°C° 1 mm 3 m/s 735 mmHg 63%
    13:00 +28°C° 1 mm 3 m/s 735 mmHg 67%
    14:00 +28°C° 0.9 mm 2 m/s 735 mmHg 67%
    15:00 +27°C° 0.9 mm 2 m/s 735 mmHg 67%
    16:00 +27°C° 0.9 mm 2 m/s 734 mmHg 67%
    17:00 +26°C° 0.1 mm 1 m/s 735 mmHg 73%
    18:00 +24°C° 0.1 mm 1 m/s 735 mmHg 78%
    19:00 +23°C° 0.1 mm 1 m/s 735 mmHg 84%
    20:00 +22°C° 0 mm 1 m/s 735 mmHg 86%
    21:00 +22°C° 0 mm 1 m/s 735 mmHg 88%
    22:00 +19°C° 0 mm 0 m/s 735 mmHg 90%
    23:00 +19°C° 0 mm 0 m/s 735 mmHg 89%

    20 Juin, Jeudi

    Heure Température Précipitation Vent Pression Humidité
    00:00 +19°C° 0 mm 0 m/s 735 mmHg 89%
    01:00 +18°C° 0 mm 0 m/s 735 mmHg 89%
    02:00 +18°C° 0 mm 0 m/s 735 mmHg 89%
    03:00 +20°C° 0 mm 1 m/s 735 mmHg 88%
    04:00 +20°C° 0 mm 1 m/s 735 mmHg 88%
    05:00 +21°C° 0 mm 1 m/s 735 mmHg 83%
    06:00 +21°C° 0 mm 0 m/s 735 mmHg 77%
    07:00 +23°C° 0 mm 0 m/s 735 mmHg 71%
    08:00 +26°C° 0.1 mm 1 m/s 735 mmHg 67%
    09:00 +27°C° 0.1 mm 1 m/s 735 mmHg 63%
    10:00 +28°C° 0.1 mm 2 m/s 735 mmHg 59%
    11:00 +28°C° 0.7 mm 2 m/s 735 mmHg 61%
    12:00 +28°C° 0.7 mm 2 m/s 735 mmHg 63%
    13:00 +28°C° 0.7 mm 3 m/s 735 mmHg 64%
    14:00 +28°C° 0.7 mm 2 m/s 735 mmHg 64%
    15:00 +28°C° 0.7 mm 2 m/s 735 mmHg 64%
    16:00 +28°C° 0.7 mm 2 m/s 735 mmHg 63%
    17:00 +26°C° 0.2 mm 1 m/s 735 mmHg 70%
    18:00 +25°C° 0.2 mm 1 m/s 735 mmHg 77%
    19:00 +23°C° 0.2 mm 1 m/s 735 mmHg 83%
    20:00 +23°C° 0 mm 1 m/s 735 mmHg 85%
    21:00 +22°C° 0 mm 1 m/s 735 mmHg 86%
    22:00 +22°C° 0 mm 1 m/s 736 mmHg 87%
    23:00 +20°C° 0 mm 0 m/s 736 mmHg 88%

    21 Juin, Vendredi

    Heure Température Précipitation Vent Pression Humidité
    00:00 +19°C° 0 mm 0 m/s 736 mmHg 88%
    01:00 +19°C° 0 mm 0 m/s 736 mmHg 88%
    02:00 +19°C° 0 mm 0 m/s 736 mmHg 88%
    03:00 +19°C° 0 mm 0 m/s 736 mmHg 89%
    04:00 +20°C° 0 mm 1 m/s 736 mmHg 89%
    05:00 +20°C° 0 mm 0 m/s 736 mmHg 83%
    06:00 +22°C° 0 mm 0 m/s 736 mmHg 78%
    07:00 +23°C° 0 mm 0 m/s 736 mmHg 72%
    08:00 +27°C° 0 mm 1 m/s 736 mmHg 67%
    09:00 +28°C° 0 mm 1 m/s 736 mmHg 62%
    10:00 +30°C° 0 mm 1 m/s 736 mmHg 57%
    11:00 +30°C° 0 mm 2 m/s 736 mmHg 56%
    12:00 +30°C° 0 mm 2 m/s 736 mmHg 55%
    13:00 +31°C° 0 mm 2 m/s 736 mmHg 54%
    14:00 +30°C° 0.2 mm 2 m/s 736 mmHg 57%
    15:00 +30°C° 0.2 mm 2 m/s 736 mmHg 60%
    16:00 +29°C° 0.2 mm 2 m/s 735 mmHg 64%
    17:00 +27°C° 0.3 mm 1 m/s 736 mmHg 70%
    18:00 +26°C° 0.3 mm 1 m/s 736 mmHg 76%
    19:00 +22°C° 0.3 mm 0 m/s 736 mmHg 82%
    20:00 +22°C° 0 mm 0 m/s 736 mmHg 83%
    21:00 +21°C° 0 mm 0 m/s 737 mmHg 84%
    22:00 +21°C° 0 mm 0 m/s 737 mmHg 84%
    23:00 +23°C° 0 mm 1 m/s 737 mmHg 84%

    22 Juin, Samedi

    Heure Température Précipitation Vent Pression Humidité
    00:00 +22°C° 0 mm 1 m/s 737 mmHg 83%
    01:00 +22°C° 0 mm 1 m/s 737 mmHg 83%
    02:00 +22°C° 0 mm 1 m/s 737 mmHg 82%
    03:00 +22°C° 0 mm 1 m/s 737 mmHg 81%
    04:00 +21°C° 0 mm 1 m/s 736 mmHg 80%
    05:00 +23°C° 0 mm 1 m/s 737 mmHg 75%
    06:00 +25°C° 0 mm 1 m/s 737 mmHg 70%
    07:00 +27°C° 0 mm 1 m/s 737 mmHg 65%
    08:00 +28°C° 0 mm 1 m/s 737 mmHg 60%
    09:00 +30°C° 0 mm 1 m/s 738 mmHg 56%
    10:00 +32°C° 0 mm 1 m/s 738 mmHg 51%
    11:00 +32°C° 0 mm 1 m/s 737 mmHg 48%
    12:00 +34°C° 0 mm 2 m/s 737 mmHg 46%
    13:00 +34°C° 0 mm 2 m/s 737 mmHg 44%
    14:00 +33°C° 0 mm 1 m/s 737 mmHg 44%
    15:00 +33°C° 0 mm 1 m/s 737 mmHg 44%
    16:00 +33°C° 0 mm 1 m/s 736 mmHg 45%
    17:00 +31°C° 0 mm 1 m/s 736 mmHg 54%
    18:00 +28°C° 0 mm 1 m/s 737 mmHg 64%
    19:00 +26°C° 0 mm 1 m/s 737 mmHg 74%
    20:00 +25°C° 0 mm 1 m/s 737 mmHg 74%
    21:00 +25°C° 0 mm 1 m/s 737 mmHg 74%
    22:00 +24°C° 0 mm 1 m/s 737 mmHg 75%
    23:00 +24°C° 0 mm 1 m/s 737 mmHg 74%
    Voir plus